Flag for Germany Weather for the Past 2 Weeks in Neumarkt in der Oberpfalz, Bavaria, Germany

Now
46 °F

Sunny.


Feels Like: 44 °F
Forecast: 43 / 59 °F
Wind: 6 mph from Southeast

Location: Hohenfels

Current Time: Apr 30, 2016 at 10:17:26 AM

Latest Report: Apr 30, 2016 at 8:58 AM


Visibility: N/A

Pressure: 30.08 "Hg

Humidity: 66%

Dew Point: 36 °F

Location of Neumarkt in der OberpfalzLocation

Historic Weather in Neumarkt in der Oberpfalz — Graph

°F

Neumarkt in der Oberpfalz Temperature Yesterday

Maximum temperature yesterday: 57 °F (at 4:58 PM)
Minimum temperature yesterday: 28 °F (at 1:58 AM)
Average temperature yesterday: 43 °F

High & Low Weather Summary for the Past Weeks

 TemperatureHumidityPressure
High66 °F (Apr 21, 5:58 PM)100% (Apr 15, 8:58 AM)30.42 "Hg (Apr 15, 8:58 AM)
Low28 °F (Apr 28, 2:58 AM)27% (Apr 21, 3:58 PM)29.57 "Hg (Apr 26, 6:00 AM)
Average43 °F78%29.97 "Hg
* Reported Apr 15 8:58 AM — Apr 30 8:58 AM, Neumarkt in der Oberpfalz, Weather by CustomWeather, © 2016

Note: Actual official high and low records may vary slightly from our data, if they occured in-between our weather recording intervals... More about our weather records

Advertising

Neumarkt in der Oberpfalz Weather History for the Previous 24 Hours

Scroll right to see more
 ConditionsComfort  
Time TempWeatherWind HumidityBarometerVisibility
8:58 AM
Sat, Apr 30
46 °FSunny.6 mph66%30.08 "HgN/A
7:58 AM37 °FSunny.No wind81%30.09 "HgN/A
6:58 AM32 °FSunny.No wind100%30.09 "HgN/A
5:58 AM28 °FChilly.N/A100%30.08 "HgN/A
4:58 AM30 °FClear.2 mph100%30.07 "HgN/A
3:58 AM32 °FClear.2 mph100%30.08 "HgN/A
2:58 AM32 °FClear.No wind100%30.08 "HgN/A
1:58 AM32 °FClear.No wind100%30.09 "HgN/A
12:58 AM34 °FClear.2 mph93%30.09 "HgN/A
11:58 PM
Fri, Apr 29
36 °FClear.No wind87%30.09 "HgN/A
10:58 PM39 °FClear.No wind81%30.09 "HgN/A
9:58 PM43 °FClear.3 mph76%30.09 "HgN/A
8:58 PM45 °FSunny.2 mph71%30.10 "HgN/A
7:58 PM54 °FSunny.3 mph44%30.07 "HgN/A
6:58 PM55 °FSunny.3 mph38%30.06 "HgN/A
5:58 PM57 °FPassing clouds.5 mph36%30.09 "HgN/A
4:58 PM57 °FPassing clouds.9 mph39%30.09 "HgN/A
3:58 PM54 °FOvercast.3 mph44%30.10 "HgN/A
2:58 PM54 °FScattered clouds.6 mph47%30.12 "HgN/A
1:58 PM52 °FOvercast.6 mph47%30.12 "HgN/A
12:58 PM52 °FPartly sunny.3 mph47%30.13 "HgN/A
11:58 AM50 °FPassing clouds.8 mph50%30.15 "HgN/A
10:58 AM48 °FSunny.5 mph62%30.15 "HgN/A
10:04 AM41 °FScattered clouds.5 mph100%30.11 "HgN/A
Weather by CustomWeather, © 2016

See weather overviewHow to use our weather pages